Location: La Coruña
(43.3623°N, 8.4115°W)
Time: 16:51:51
(UTC+01:00)

Falcon 9 debris - Visible Passes

Search period start: 17 February 2020 00:00
Search period end: 27 February 2020 00:00
Orbit: 429 x 437 km, 53.0° (Epoch: 16 February)

Date Brightness Start Highest point End Pass type
(mag) Time Alt. Az. Time Alt. Az. Time Alt. Az.
17 Feb ? 19:58:33 10° NW 20:00:49 16° N 20:03:01 10° NE visible
17 Feb ? 21:35:34 10° NW 21:36:16 14° NNW 21:36:16 14° NNW visible
18 Feb ? 20:52:32 10° NW 20:54:56 23° N 20:54:56 23° N visible
19 Feb ? 20:09:28 10° NW 20:12:07 20° NNE 20:13:38 16° NE visible
19 Feb ? 21:46:09 10° NW 21:46:53 16° NW 21:46:53 16° NW visible
20 Feb ? 21:03:05 10° NW 21:05:39 39° NNW 21:05:39 39° NNW visible
21 Feb ? 20:20:03 10° NW 20:23:14 35° NNE 20:24:29 26° ENE visible
21 Feb ? 21:57:03 10° WNW 21:57:45 15° WNW 21:57:45 15° WNW visible
22 Feb ? 19:37:00 10° NW 19:40:00 27° NNE 19:43:00 10° E visible
22 Feb ? 21:13:48 10° WNW 21:16:40 49° WSW 21:16:40 49° WSW visible
23 Feb ? 20:30:38 10° NW 20:34:05 87° SSW 20:35:43 29° SE visible
24 Feb ? 19:47:32 10° NW 19:50:57 63° NNE 19:54:20 10° ESE visible
24 Feb ? 21:25:17 10° W 21:27:35 17° SW 21:28:10 16° SW visible
25 Feb ? 20:41:42 10° WNW 20:44:37 26° SW 20:47:30 10° SSE visible
26 Feb ? 19:58:20 10° WNW 20:01:35 40° SW 20:04:47 10° SSE visible
